When you browse on this site, cookies collect data to enhance your experience and personalize the content and advertising you see.
Visit our Privacy Policy to learn more. By continuing to use the site, you agree to this use of cookies and data.
  • In Schweiz
  • Länderverzeichnis
  • Für 7 Tage
  • Wassertemperatur
  • Wetterkarte
  • Widgets
  • user-avatar
    Anmelden

    Stündliche Wetter Tomashivtsi

    Heute, 25 August, Sonntag

    Zeit Temperatur Niederschläge Wind Luftdruck Luftfeuchtigkeit
    00:00 +18°C° 0 mm 2 m/S 743 mmHg 79%
    01:00 +17°C° 0 mm 2 m/S 743 mmHg 81%
    02:00 +17°C° 0 mm 2 m/S 743 mmHg 83%
    03:00 +17°C° 0 mm 2 m/S 743 mmHg 84%
    04:00 +16°C° 0 mm 2 m/S 743 mmHg 85%
    05:00 +16°C° 0 mm 2 m/S 743 mmHg 86%
    06:00 +17°C° 0 mm 2 m/S 743 mmHg 82%
    07:00 +19°C° 0 mm 3 m/S 743 mmHg 78%
    08:00 +20°C° 0 mm 3 m/S 743 mmHg 74%
    09:00 +22°C° 0 mm 3 m/S 743 mmHg 69%
    10:00 +25°C° 0 mm 4 m/S 743 mmHg 64%
    11:00 +26°C° 0 mm 4 m/S 743 mmHg 58%
    12:00 +27°C° 0 mm 4 m/S 743 mmHg 56%
    13:00 +28°C° 0 mm 4 m/S 743 mmHg 54%
    14:00 +29°C° 0 mm 4 m/S 743 mmHg 52%
    15:00 +29°C° 0 mm 3 m/S 743 mmHg 53%
    16:00 +29°C° 0 mm 3 m/S 743 mmHg 55%
    17:00 +29°C° 0 mm 3 m/S 742 mmHg 57%
    18:00 +27°C° 0.1 mm 3 m/S 742 mmHg 64%
    19:00 +25°C° 0.1 mm 3 m/S 742 mmHg 71%
    20:00 +21°C° 0.1 mm 4 m/S 742 mmHg 78%
    21:00 +20°C° 0.2 mm 4 m/S 743 mmHg 81%
    22:00 +19°C° 0.2 mm 3 m/S 743 mmHg 84%
    23:00 +18°C° 0.2 mm 3 m/S 743 mmHg 86%

    Morgen, 26 August, Montag

    Zeit Temperatur Niederschläge Wind Luftdruck Luftfeuchtigkeit
    00:00 +18°C° 0 mm 3 m/S 743 mmHg 86%
    01:00 +17°C° 0 mm 3 m/S 743 mmHg 86%
    02:00 +17°C° 0 mm 3 m/S 743 mmHg 86%
    03:00 +16°C° 0 mm 3 m/S 743 mmHg 86%
    04:00 +16°C° 0 mm 3 m/S 743 mmHg 85%
    05:00 +16°C° 0 mm 3 m/S 743 mmHg 85%
    06:00 +17°C° 0 mm 3 m/S 743 mmHg 81%
    07:00 +18°C° 0 mm 3 m/S 743 mmHg 77%
    08:00 +20°C° 0 mm 3 m/S 743 mmHg 73%
    09:00 +22°C° 0 mm 4 m/S 743 mmHg 66%
    10:00 +25°C° 0 mm 4 m/S 743 mmHg 59%
    11:00 +27°C° 0 mm 4 m/S 743 mmHg 53%
    12:00 +28°C° 0 mm 4 m/S 743 mmHg 49%
    13:00 +30°C° 0 mm 4 m/S 743 mmHg 46%
    14:00 +32°C° 0 mm 4 m/S 742 mmHg 43%
    15:00 +30°C° 0 mm 4 m/S 742 mmHg 45%
    16:00 +30°C° 0 mm 4 m/S 742 mmHg 47%
    17:00 +30°C° 0 mm 4 m/S 742 mmHg 49%
    18:00 +28°C° 0 mm 4 m/S 742 mmHg 53%
    19:00 +26°C° 0 mm 4 m/S 742 mmHg 58%
    20:00 +22°C° 0 mm 4 m/S 742 mmHg 62%
    21:00 +21°C° 0 mm 3 m/S 742 mmHg 62%
    22:00 +21°C° 0 mm 3 m/S 742 mmHg 62%
    23:00 +20°C° 0 mm 3 m/S 742 mmHg 62%

    übermorgen, 27 August, Dienstag

    Zeit Temperatur Niederschläge Wind Luftdruck Luftfeuchtigkeit
    00:00 +19°C° 0 mm 3 m/S 742 mmHg 63%
    01:00 +18°C° 0 mm 2 m/S 742 mmHg 64%
    02:00 +18°C° 0 mm 2 m/S 741 mmHg 65%
    03:00 +17°C° 0 mm 2 m/S 741 mmHg 67%
    04:00 +17°C° 0 mm 2 m/S 741 mmHg 68%
    05:00 +17°C° 0 mm 2 m/S 741 mmHg 70%
    06:00 +18°C° 0 mm 2 m/S 741 mmHg 68%
    07:00 +20°C° 0 mm 2 m/S 742 mmHg 65%
    08:00 +21°C° 0 mm 2 m/S 742 mmHg 63%
    09:00 +24°C° 0 mm 2 m/S 742 mmHg 57%
    10:00 +26°C° 0 mm 3 m/S 742 mmHg 51%
    11:00 +28°C° 0 mm 3 m/S 742 mmHg 44%
    12:00 +29°C° 0 mm 3 m/S 742 mmHg 42%
    13:00 +30°C° 0 mm 2 m/S 742 mmHg 39%
    14:00 +31°C° 0 mm 2 m/S 742 mmHg 37%
    15:00 +31°C° 0 mm 2 m/S 742 mmHg 39%
    16:00 +30°C° 0 mm 2 m/S 741 mmHg 41%
    17:00 +30°C° 0 mm 2 m/S 741 mmHg 44%
    18:00 +28°C° 0 mm 2 m/S 741 mmHg 49%
    19:00 +25°C° 0 mm 2 m/S 741 mmHg 54%
    20:00 +21°C° 0 mm 2 m/S 741 mmHg 60%
    21:00 +21°C° 0 mm 2 m/S 742 mmHg 61%
    22:00 +20°C° 0 mm 2 m/S 742 mmHg 63%
    23:00 +19°C° 0 mm 2 m/S 742 mmHg 65%

    28 August, Mittwoch

    Zeit Temperatur Niederschläge Wind Luftdruck Luftfeuchtigkeit
    00:00 +18°C° 0 mm 2 m/S 742 mmHg 66%
    01:00 +18°C° 0 mm 2 m/S 742 mmHg 68%
    02:00 +17°C° 0 mm 2 m/S 742 mmHg 69%
    03:00 +17°C° 0 mm 2 m/S 742 mmHg 70%
    04:00 +16°C° 0 mm 2 m/S 742 mmHg 71%
    05:00 +16°C° 0 mm 2 m/S 741 mmHg 73%
    06:00 +17°C° 0 mm 3 m/S 741 mmHg 69%
    07:00 +19°C° 0 mm 3 m/S 742 mmHg 65%
    08:00 +20°C° 0 mm 3 m/S 742 mmHg 62%
    09:00 +22°C° 0 mm 4 m/S 742 mmHg 56%
    10:00 +26°C° 0 mm 4 m/S 742 mmHg 50%
    11:00 +28°C° 0 mm 4 m/S 742 mmHg 45%
    12:00 +29°C° 0 mm 4 m/S 741 mmHg 42%
    13:00 +30°C° 0 mm 4 m/S 741 mmHg 38%
    14:00 +32°C° 0 mm 4 m/S 741 mmHg 35%
    15:00 +32°C° 0 mm 4 m/S 740 mmHg 38%
    16:00 +30°C° 0 mm 4 m/S 740 mmHg 41%
    17:00 +30°C° 0 mm 4 m/S 740 mmHg 43%
    18:00 +27°C° 0 mm 4 m/S 740 mmHg 49%
    19:00 +25°C° 0 mm 4 m/S 740 mmHg 54%
    20:00 +22°C° 0 mm 4 m/S 740 mmHg 59%
    21:00 +21°C° 0 mm 4 m/S 740 mmHg 60%
    22:00 +20°C° 0 mm 3 m/S 740 mmHg 62%
    23:00 +19°C° 0 mm 3 m/S 740 mmHg 63%

    29 August, Donnerstag

    Zeit Temperatur Niederschläge Wind Luftdruck Luftfeuchtigkeit
    00:00 +18°C° 0 mm 3 m/S 740 mmHg 66%
    01:00 +18°C° 0 mm 3 m/S 740 mmHg 69%
    02:00 +17°C° 0 mm 3 m/S 740 mmHg 71%
    03:00 +17°C° 0 mm 3 m/S 739 mmHg 73%
    04:00 +17°C° 0 mm 3 m/S 739 mmHg 74%
    05:00 +16°C° 0 mm 3 m/S 739 mmHg 76%
    06:00 +17°C° 0 mm 3 m/S 739 mmHg 72%
    07:00 +18°C° 0 mm 4 m/S 739 mmHg 69%
    08:00 +20°C° 0 mm 4 m/S 739 mmHg 65%
    09:00 +22°C° 0 mm 4 m/S 739 mmHg 60%
    10:00 +25°C° 0 mm 5 m/S 740 mmHg 54%
    11:00 +27°C° 0 mm 5 m/S 740 mmHg 49%
    12:00 +28°C° 0 mm 5 m/S 740 mmHg 46%
    13:00 +29°C° 0 mm 5 m/S 739 mmHg 43%
    14:00 +30°C° 0 mm 5 m/S 739 mmHg 39%
    15:00 +29°C° 0 mm 5 m/S 739 mmHg 42%
    16:00 +29°C° 0 mm 5 m/S 739 mmHg 44%
    17:00 +29°C° 0 mm 4 m/S 739 mmHg 46%
    18:00 +27°C° 0 mm 4 m/S 739 mmHg 50%
    19:00 +23°C° 0 mm 4 m/S 739 mmHg 54%
    20:00 +21°C° 0 mm 5 m/S 739 mmHg 58%
    21:00 +20°C° 0 mm 5 m/S 739 mmHg 57%
    22:00 +20°C° 0 mm 4 m/S 739 mmHg 56%
    23:00 +19°C° 0 mm 4 m/S 740 mmHg 54%

    30 August, Freitag

    Zeit Temperatur Niederschläge Wind Luftdruck Luftfeuchtigkeit
    00:00 +18°C° 0 mm 4 m/S 740 mmHg 53%
    01:00 +18°C° 0 mm 4 m/S 740 mmHg 52%
    02:00 +17°C° 0 mm 4 m/S 740 mmHg 50%
    03:00 +15°C° 0 mm 4 m/S 740 mmHg 52%
    04:00 +15°C° 0 mm 4 m/S 740 mmHg 53%
    05:00 +14°C° 0 mm 4 m/S 739 mmHg 55%
    06:00 +15°C° 0 mm 4 m/S 740 mmHg 55%
    07:00 +17°C° 0 mm 4 m/S 740 mmHg 54%
    08:00 +17°C° 0 mm 5 m/S 740 mmHg 54%
    09:00 +20°C° 0 mm 5 m/S 740 mmHg 51%
    10:00 +22°C° 0 mm 5 m/S 740 mmHg 47%
    11:00 +25°C° 0 mm 5 m/S 741 mmHg 44%
    12:00 +26°C° 0 mm 5 m/S 741 mmHg 42%
    13:00 +27°C° 0 mm 5 m/S 740 mmHg 40%
    14:00 +28°C° 0 mm 5 m/S 740 mmHg 38%
    15:00 +28°C° 0 mm 5 m/S 740 mmHg 39%
    16:00 +28°C° 0 mm 5 m/S 740 mmHg 40%
    17:00 +27°C° 0 mm 4 m/S 740 mmHg 41%
    18:00 +25°C° 0 mm 4 m/S 740 mmHg 43%
    19:00 +22°C° 0 mm 4 m/S 740 mmHg 45%
    20:00 +20°C° 0 mm 4 m/S 740 mmHg 47%
    21:00 +19°C° 0 mm 3 m/S 740 mmHg 47%
    22:00 +18°C° 0 mm 3 m/S 740 mmHg 46%
    23:00 +17°C° 0 mm 3 m/S 740 mmHg 46%
    Mehr zeigen